Flag for U.S.A. Weather past 2 weeks in Germantown, Maryland, U.S.A.

52 °F


Feels Like: 50 °F
Forecast: 29 / 53 °F
Wind: 6 mph from North

Location: Frederick Municipal Airport

Current Time: Nov 25, 2015 at 1:37:08 PM

Latest Report: Nov 25, 2015 at 12:50 PM

Visibility: 10 mi

Pressure: 30.70 "Hg

Humidity: 54%

Dew point: 36 °F

Location of GermantownLocation

Historic Weather in Germantown — Graph


Germantown temperature yesterday

Maximum temperature yesterday: 52 °F (at 12:50 PM)
Minimum temperature yesterday: 30 °F (at 2:55 AM)
Average temperature yesterday: 36 °F

Past Weeks' High & Low Weather Summary

High70 °F (Nov 16, 1:47 PM)100% (Nov 10, 11:50 AM)30.74 "Hg (Nov 10, 11:50 AM)
Low19 °F (Nov 23, 7:50 AM)28% (Nov 20, 12:50 PM)29.61 "Hg (Nov 12, 4:48 PM)
Average46 °F76%30.18 "Hg
* Reported Nov 10 11:50 AM — Nov 25 11:50 AM, Germantown, Weather by CustomWeather, © 2015

Note: Actual official high and low records may vary slightly from our data, if they occured in-between our weather recording intervals... More about our weather records


Germantown weather history for previous 24 hours

Time TempWeatherWind HumidityBarometerVisibility
11:50 AM
Wed, Nov 25
48 °FSunny.5 mph62%30.72 "Hg10 mi
10:50 AM46 °FSunny.5 mph62%30.74 "Hg10 mi
9:45 AM39 °FSunny.6 mph81%30.74 "Hg10 mi
8:55 AM36 °FSunny.3 mph81%30.73 "Hg10 mi
7:50 AM28 °FSunny.No wind93%30.70 "Hg10 mi
6:50 AM27 °FClear.No wind100%30.68 "Hg10 mi
5:20 AM28 °FLight snow. Clear.No wind93%30.64 "Hg10 mi
5:00 AM27 °FLight snow. Clear.5 mph100%30.64 "Hg7 mi
4:40 AM27 °FLight snow. Clear.No wind100%30.63 "Hg7 mi
4:20 AM27 °FLight snow. Clear.No wind100%30.62 "Hg7 mi
4:00 AM27 °FLight snow. Clear.No wind100%30.62 "Hg7 mi
3:40 AM28 °FLight snow. Clear.No wind93%30.62 "Hg7 mi
3:20 AM28 °FClear.No wind93%30.61 "Hg10 mi
3:00 AM28 °FClear.No wind93%30.61 "Hg10 mi
2:40 AM28 °FClear.No wind93%30.61 "Hg10 mi
2:00 AM28 °FClear.No wind100%30.59 "Hg10 mi
1:20 AM28 °FClear.No wind100%30.58 "Hg10 mi
1:00 AM28 °FClear.No wind93%30.58 "Hg10 mi
12:40 AM28 °FLight snow. Clear.No wind100%30.57 "Hg10 mi
12:20 AM28 °FClear.No wind100%30.56 "Hg10 mi
12:00 AM28 °FClear.No wind100%30.56 "Hg10 mi
11:20 PM
Tue, Nov 24
30 °FClear.No wind100%30.55 "Hg10 mi
10:35 PM30 °FClear.No wind100%30.54 "Hg10 mi
10:15 PM30 °FClear.No wind100%30.53 "Hg10 mi
9:55 PM30 °FClear.No wind100%30.53 "Hg10 mi
9:35 PM30 °FClear.No wind100%30.52 "Hg10 mi
9:15 PM32 °FClear.No wind93%30.52 "Hg10 mi
8:55 PM32 °FClear.No wind100%30.51 "Hg10 mi
8:35 PM32 °FClear.No wind93%30.51 "Hg10 mi
8:15 PM32 °FClear.No wind93%30.50 "Hg10 mi
7:35 PM36 °FClear.No wind87%30.49 "Hg10 mi
6:50 PM36 °FClear.No wind81%30.47 "Hg10 mi
5:50 PM37 °FClear.N/A75%30.44 "Hg10 mi
4:48 PM45 °FClear.No wind61%30.41 "Hg10 mi
3:48 PM52 °FScattered clouds.6 mph44%30.38 "Hg10 mi
2:50 PM52 °FScattered clouds.10 mph44%30.37 "Hg10 mi
1:55 PM52 °FScattered clouds.13 mph47%30.36 "Hg10 mi
Weather by CustomWeather, © 2015

See weather overviewHow to use our weather pages